This demonstration page uses our WeatherBlox Daily Observations layout. Learn more.

Left ArrowRight Arrow

39.08367, -84.50855

Hourly Observations for March 12, 2019

Temp ( °F °C ) Dew Point ( °F °C ) Humidity (%) Winds ( mph kmh ) Pressure ( in mb ) Visibility ( mi km ) Precip ( " mm )
12:53 am 00:53 Clear 33 0.6 27 -2.8 78 78 N N/A 30.39 1029 10 16 N/A
1:53 am 01:53 Clear 32 undefined 28 -2.2 85 85 N N/A 30.40 1029 10 16 N/A
2:53 am 02:53 Clear 29 -1.7 27 -2.8 92 92 SSW 3 6 30.41 1030 10 16 N/A
3:53 am 03:53 Clear 30 -1.1 26 -3.3 85 85 N N/A 30.42 1030 10 16 N/A
4:53 am 04:53 Clear 28 -2.2 26 -3.3 92 92 N N/A 30.42 1030 10 16 N/A
5:53 am 05:53 Clear 27 -2.8 25 -3.9 92 92 N N/A 30.42 1030 10 16 N/A
6:53 am 06:53 Clear 27 -2.8 25 -3.9 92 92 N N/A 30.43 1031 9 14 N/A
7:53 am 07:53 Clear 28 -2.2 26 -3.3 92 92 N N/A 30.43 1030 8 13 N/A
8:53 am 08:53 Sunny 29 -1.7 27 -2.8 92 92 N N/A 30.45 1031 10 16 N/A
9:53 am 09:53 Sunny 34 1.1 30 -1.1 85 85 N N/A 30.46 1031 10 16 N/A
10:53 am 10:53 Sunny 38 3.3 30 -1.1 73 73 N 6 9 30.45 1031 10 16 N/A
11:53 am 11:53 Sunny 42 5.6 28 -2.2 58 58 VRB 3 6 30.44 1031 10 16 N/A
12:53 pm 12:53 Sunny 45 7.2 24 -4.4 44 44 N N/A 30.43 1031 10 16 N/A
1:53 pm 13:53 Sunny 47 8.3 21 -6.1 36 36 VRB 3 6 30.41 1030 10 16 N/A
2:53 pm 14:53 Sunny 49 9.4 19 -7.2 31 31 N 3 6 30.38 1029 10 16 N/A
3:29 pm 15:29 Sunny 49 9.4 15 -9.4 26 26 S 3 6 30.36 1028 10 16 N/A
3:53 pm 15:53 Sunny 51 10.6 18 -7.8 27 27 S 3 6 30.35 1028 10 16 N/A
4:53 pm 16:53 Sunny 51 10.6 18 -7.8 27 27 WSW 6 9 30.33 1027 10 16 N/A
5:53 pm 17:53 Sunny 51 10.6 14 -10 23 23 N N/A 30.32 1027 10 16 N/A
6:53 pm 18:53 Sunny 49 9.4 19 -7.2 31 31 SSE 3 6 30.31 1027 10 16 N/A
7:53 pm 19:53 Clear 45 7.2 25 -3.9 46 46 N N/A 30.32 1027 10 16 N/A
8:53 pm 20:53 Clear 41 5 27 -2.8 57 57 N N/A 30.31 1026 10 16 N/A
9:53 pm 21:53 Clear 39 3.9 30 -1.1 70 70 N N/A 30.29 1026 10 16 N/A
10:53 pm 22:53 Clear 38 3.3 29 -1.7 70 70 N N/A 30.28 1025 10 16 N/A
11:53 pm 23:53 Clear 38 3.3 31 -0.6 76 76 N N/A 30.25 1024 10 16 N/A

Powered by AerisWeather